sat.trackr.live / text

‹ back to catalog

STARLINK-32011

NORAD 60030 · 2024-111Q

PAYLOAD ACTIVE UNKNOWN

§ Identity

Operator
Country
US
Launch date
2024-06-08
Launch site
AFETR
Launch vehicle
Mass (kg)
RCS (m²)

Purposes: comms

External: N2YO · Heavens-Above · Gunter

§ Orbital elements

Epoch: 2026-09-21T21:58:43.040352Z

Period
93.85 min
Inclination
53.1600°
Eccentricity
0.0001350
Mean motion
15.34382464 rev/d
Perigee alt
461.8 km
Apogee alt
463.7 km
Semi-major
6,840.9 km
B*
1.8526e-5
RAAN
239.4261°
Arg perigee
89.3680°
Mean anomaly
270.7477°
Rev number
12,914

§ Raw data

STARLINK-320111 60030U 24111Q   26264.91577593  .00000249  00000+0  18526-4 0  99942 60030  53.1600 239.4261 0001350  89.3680 270.7477 15.34382464129147

JSON: /api/v1/satellites/60030 · /tle

For live sub-satellite position, see the globe view (requires WebGL).

§ Visibility from observer

Set your observer location to see the next 7 days of passes ≥ 10°. The values pass through the URL so the page stays shareable.

No JS? Fill the form by hand. The geolocation button needs JavaScript.